User: anonymous   Login
Location: Krakow
(50.0830°N, 19.9170°E)
Time: 18:54:09
(UTC+02:00)
Language:

Transit 2A Rocket - Orbit

View from above orbital plane
View from above orbital plane
View from above satellite
View from above satellite

Ground track
Ground track

The orbit data is extracted from the following two-line orbital elements,

1 00047U 60007C   24170.78332412  .00000533  00000-0  13845-3 0  9993
2 00047  66.6635 202.1796 0229371 311.4809  46.6800 14.43592809345597
Epoch (UTC): 18 June 2024 18:47:59
Eccentricity: 0.0229371
inclination: 66.6635°
perigee height: 583 km
apogee height: 910 km
right ascension of ascending node: 202.1796°
argument of perigee: 311.4809°
revolutions per day: 14.43592809
mean anomaly at epoch: 46.6800°
orbit number at epoch: 34559

The dashed part of the orbit path shows where the satellite is in the earth's shadow,  

DLR